Showing default

KANOPUS-V 5, 43876

Orbit data source: Space-Track

KANOPUS-V 5, 43876 is a payload satellite owned by VNIIEM (CIS) in SSO that was launched on Thu, 27 Dec 2018 UTC via a SOYUZ-2-1A launch vehicle from the Vostochny Cosmodrome (VOSTO). Payload-class satellites include a variety of spacecraft equipped with specific instruments for various scientific and technological missions. These include communications satellites like Starlink; space stations such as the ISS; scientific satellites like the Hubble; Earth observation satellites from companies like Planet Labs, Umbra, and HawkEye 360; GPS; miniature CubeSats for education and research; and military/defense satellites.

Loading next visibility...
Identifier
43876, 2018-111A
Orbit
SSO
Last TLE update
4 hours ago
Origin
Manufacturer
VNIIEM
Mission
Operational Civil Imaging
Bus & Motor
KANOPUS, Unknown motor
Mass
473 kg wet, 473 kg dry
Launch date (UTC)
2018-12-27 (7 years ago)
Launch vehicle
SOYUZ-2-1A
Launch site
Vostochny Cosmodrome (VOSTO)
Object type
Payload
Rocket body
Debris
Shape & HBR
Box + 2 Pan, 6 m
Radar Cross Section
1.665 m², Large (>1 m²)

Expand to show TLE details & history

TLE from 4 hours ago
0 KANOPUS-V 5
1 43876U 18111A   25182.22593851  .00002294  00000-0  10109-3 0  9994
2 43876  97.3767  89.3735 0001809  90.9232 269.2211 15.22811102359336
Epoch: 2025-07-01T05:25Z
TLE epoch observation values (Epoch: 2025-07-01T05:25:21.087Z)
Latitude
-0.00011°
Longitude
88.51121°
Altitude
500.478 km
Speed
7.614 km/s
True Right ascension
05h 57m 29s
True Declination
0° 00' 00"
Sunlit
Object was in daylight at epoch
Visualization orbit readout
Latitude
43.86631°
Longitude
-84.22666°
Altitude
503.119 km
Speed
7.618 km/s
Apparent Right ascension
13h 42m 34s
Apparent Declination
12° 39' 10"
Sunlit
Object is in full shadow
Visualization observer readout
Local Sidereal Time
20:48:28
Azimuth
290.271° WNW
Elevation
-4.111°
Doppler factor
1
Orbital elements
Apogee altitude
495.57 km
Perigee altitude
493.084 km
Semi-major axis
6,872.464 km
Eccentricity
0.00018
Inclination
97.3767°
RAAN
89.3735°
Arg. of periapsis
90.9232°
True anomaly
Unknown
Mean anomaly
269.2211°
Eccentric anomaly
Unknown
Mean motion
3.80956 °/min
Orbital period
94.5 mins
BSTAR
0.00010109
Loading maneuver chart data...
Loading SW <> Apogee altitude chart data...
Loading historical data...
Loading historical data...
Loading historical data...
Loading historical data...
Loading historical data...
Loading historical data...
Loading historical data...

KANOPUS-V 5 Visibility forecast

Observer location: undefined°, undefined°

Span
Click to sort rows by Start time (UTC) header in descending order
Start Az.
Max El. time (UTC)
Max El. Az.
Max El.
End time (UTC)
End Az.
7 mins2025-07-01 18:09:14.449Z183.696° SSW2025-07-01 18:12:14.449Z231.382° WSW35.896°2025-07-01 18:16:14.449Z337.215° NNW
4 mins2025-07-02 07:14:14.449Z329.055° NNW2025-07-02 07:15:14.449Z300.16° NW28.501°2025-07-02 07:18:14.449Z227.01° WSW
|